{"data":{"norad_id":58476,"epoch":"2026-09-20T16:07:49.067616Z","epoch_age_seconds":131898,"freshness":"FRESH","line1":"1 58476U 23186D   26263.67209569  .00011858  00000+0  43983-3 0  9995","line2":"2 58476  43.0010  46.1179 0002053 269.0620  90.9996 15.27573650155670","mean_motion":15.2757365,"eccentricity":0.0002053,"inclination_deg":43.001,"raan_deg":46.1179,"arg_perigee_deg":269.062,"mean_anomaly_deg":90.9996,"bstar":0.00043983,"rev_number":15567,"period_min":94.267140572895,"perigee_km":481.65950488078,"apogee_km":484.47671569906,"semimajor_km":6861.2051102899,"source":"CELESTRAK","updated_at":"2026-09-21T09:00:33.880586Z"}}